User: anonymous   Login
Location: Rampisham
(50.8199°N, 2.6176°W)
Time: 14:09:48
(UTC+01:00)
Language:

ISS - Orbit

View from above orbital plane
View from above orbital plane
View from above satellite
View from above satellite

Ground track
Ground track

The orbit data is extracted from the following two-line orbital elements,

1 25544U 98067A   22279.22836639  .00013819  00000-0  25172-3 0  9993
2 25544  51.6417 146.4500 0003311 259.7001 241.4837 15.49766217362400
Epoch (UTC): 06 October 2022 05:28:50
Eccentricity: 0.0003311
inclination: 51.6417°
perigee height: 415 km
apogee height: 419 km
right ascension of ascending node: 146.4500°
argument of perigee: 259.7001°
revolutions per day: 15.49766217
mean anomaly at epoch: 241.4837°
orbit number at epoch: 36240

The dashed part of the orbit path shows where the satellite is in the earth's shadow,  

DLR